User: anonymous   Login
Location: Bowman Observatory
(41.0326°N, 73.6210°W)
Time: 11:40:08
(UTC-04:00)
Language:

Cosmos 2297 - Orbit

View from above orbital plane
View from above orbital plane
View from above satellite
View from above satellite

Ground track
Ground track

The orbit data is extracted from the following two-line orbital elements,

1 23404U 94077A   16144.84383284  .00000188  00000-0  12514-3 0  9999
2 23404  71.0168  27.9975 0015308  13.2381 346.9139 14.13480229109056
Epoch (UTC): 23 May 2016 20:15:07
Eccentricity: 0.0015308
inclination: 71.0168°
perigee height: 836 km
apogee height: 858 km
right ascension of ascending node: 27.9975°
argument of perigee: 13.2381°
revolutions per day: 14.13480229
mean anomaly at epoch: 346.9139°
orbit number at epoch: 10905

The dashed part of the orbit path shows where the satellite is in the earth's shadow,  

DLR